Location: *
(49.3500°N, 12.6000°E)
Time: 13:51:32
(UTC+00:00)

Cosmos 2058 - Pass Details

Date: 18 October 2019
Orbit: 563 x 583 km, 82.5° (Epoch: 13 November)

Event Time Altitude Azimuth Distance (km) Brightness Sun altitude
Rises 17:18:41 0° 1° (N) 2,822 6.4 -11.2°
Reaches altitude 10° 17:21:24 10° 19° (NNE) 1,916 5.4 -11.7°
Maximum altitude 17:24:31 20° 67° (ENE) 1,389 4.3 -12.2°
Enters shadow 17:25:24 19° 84° (E) 1,436 4.3 -12.3°
